Time,TemperatureF,DewpointF,PressureIn,WindDirection,WindDirectionDegrees,WindSpeedMPH,WindSpeedGustMPH,Humidity,HourlyPrecipIn,Conditions,Clouds,dailyrainin,SoftwareType,DateUTC
2013-05-16 00:01:00,51.0,48.8,29.70,SSE,157,0.0,0.0,92,0.00,,---,0.00,VWS V14.00,2013-05-16 04:01:00,
2013-05-16 00:06:00,51.0,49.0,29.70,SSE,157,0.0,0.0,93,0.00,,---,0.00,VWS V14.00,2013-05-16 04:06:00,
2013-05-16 00:11:00,51.0,49.0,29.70,SSE,157,0.0,0.0,93,0.00,,---,0.00,VWS V14.00,2013-05-16 04:11:00,
2013-05-16 00:16:00,50.0,48.1,29.70,SSE,157,0.0,0.0,93,0.00,,---,0.00,VWS V14.00,2013-05-16 04:16:00,
2013-05-16 00:21:00,50.0,48.1,29.70,SSE,157,0.0,0.0,93,0.00,,---,0.00,VWS V14.00,2013-05-16 04:21:00,
2013-05-16 00:26:00,50.0,48.1,29.69,SSE,157,0.0,0.0,93,0.00,,---,0.00,VWS V14.00,2013-05-16 04:26:00,
2013-05-16 00:31:00,50.0,48.3,29.69,SSE,157,0.0,0.0,94,0.00,,---,0.00,VWS V14.00,2013-05-16 04:31:00,
2013-05-16 00:36:00,50.0,48.3,29.69,SSE,157,0.0,0.0,94,0.00,,---,0.00,VWS V14.00,2013-05-16 04:36:00,
2013-05-16 00:41:00,50.0,48.1,29.69,SSE,157,0.0,0.0,93,0.00,,---,0.00,VWS V14.00,2013-05-16 04:41:00,
2013-05-16 00:46:00,49.0,47.1,29.69,SSE,157,0.0,0.0,93,0.00,,---,0.00,VWS V14.00,2013-05-16 04:46:00,
2013-05-16 00:51:00,49.0,47.3,29.69,SSE,157,0.0,0.0,94,0.00,,---,0.00,VWS V14.00,2013-05-16 04:51:00,
2013-05-16 00:56:00,49.0,47.3,29.69,SSE,157,0.0,0.0,94,0.00,,---,0.00,VWS V14.00,2013-05-16 04:56:00,
2013-05-16 01:01:00,49.0,47.3,29.69,SSE,157,0.0,0.0,94,0.00,,---,0.00,VWS V14.00,2013-05-16 05:01:00,
2013-05-16 01:06:00,49.0,47.3,29.69,SSE,157,0.0,0.0,94,0.00,,---,0.00,VWS V14.00,2013-05-16 05:06:00,
2013-05-16 01:11:00,49.0,47.3,29.69,SSE,157,0.0,0.0,94,0.00,,---,0.00,VWS V14.00,2013-05-16 05:11:00,
2013-05-16 01:16:00,49.0,47.3,29.69,SSE,157,0.0,0.0,94,0.00,,---,0.00,VWS V14.00,2013-05-16 05:16:00,
2013-05-16 01:21:00,48.0,46.4,29.69,SSE,157,0.0,0.0,94,0.00,,---,0.00,VWS V14.00,2013-05-16 05:21:00,
2013-05-16 01:26:00,48.0,46.4,29.69,SSE,157,0.0,0.0,94,0.00,,---,0.00,VWS V14.00,2013-05-16 05:26:00,
2013-05-16 01:31:00,48.0,46.4,29.69,SSE,157,0.0,0.0,94,0.00,,---,0.00,VWS V14.00,2013-05-16 05:31:00,
2013-05-16 01:36:00,48.0,46.4,29.69,SSE,157,0.0,0.0,94,0.00,,---,0.00,VWS V14.00,2013-05-16 05:36:00,
2013-05-16 01:41:00,48.0,46.4,29.69,SSE,157,0.0,0.0,94,0.00,,---,0.00,VWS V14.00,2013-05-16 05:41:00,
2013-05-16 01:46:00,48.0,46.4,29.69,SSE,157,0.0,0.0,94,0.00,,---,0.00,VWS V14.00,2013-05-16 05:46:00,
2013-05-16 01:51:00,48.0,46.6,29.69,SSE,157,0.0,0.0,95,0.00,,---,0.00,VWS V14.00,2013-05-16 05:51:00,
2013-05-16 01:56:00,48.0,46.6,29.69,SSE,157,0.0,0.0,95,0.00,,---,0.00,VWS V14.00,2013-05-16 05:56:00,
2013-05-16 02:01:00,48.0,46.6,29.69,SSE,157,0.0,0.0,95,0.00,,---,0.00,VWS V14.00,2013-05-16 06:01:00,
2013-05-16 02:06:00,47.0,45.4,29.69,SSE,157,0.0,0.0,94,0.00,,---,0.00,VWS V14.00,2013-05-16 06:06:00,
2013-05-16 02:11:00,47.0,45.4,29.69,SSE,157,0.0,0.0,94,0.00,,---,0.00,VWS V14.00,2013-05-16 06:11:00,
2013-05-16 02:16:00,47.0,45.4,29.69,ENE,67,0.0,0.0,94,0.00,,---,0.00,VWS V14.00,2013-05-16 06:16:00,
2013-05-16 02:21:00,47.0,45.4,29.69,ENE,67,0.0,0.0,94,0.00,,---,0.00,VWS V14.00,2013-05-16 06:21:00,
2013-05-16 02:26:00,48.0,46.6,29.69,ENE,67,0.0,0.0,95,0.00,,---,0.00,VWS V14.00,2013-05-16 06:26:00,
2013-05-16 02:31:00,48.0,46.6,29.69,ENE,67,0.0,0.0,95,0.00,,---,0.00,VWS V14.00,2013-05-16 06:31:00,
2013-05-16 02:36:00,48.0,46.9,29.69,ENE,67,0.0,0.0,96,0.00,,---,0.00,VWS V14.00,2013-05-16 06:36:00,
2013-05-16 02:41:00,48.0,46.9,29.69,ENE,67,0.0,0.0,96,0.00,,---,0.00,VWS V14.00,2013-05-16 06:41:00,
2013-05-16 02:46:00,49.0,47.9,29.68,ENE,67,0.0,0.0,96,0.00,,---,0.00,VWS V14.00,2013-05-16 06:46:00,
2013-05-16 02:51:00,49.0,47.9,29.68,ENE,67,0.0,0.0,96,0.00,,---,0.00,VWS V14.00,2013-05-16 06:51:00,
2013-05-16 02:56:00,50.0,49.2,29.69,ENE,67,0.0,0.0,97,0.00,,---,0.00,VWS V14.00,2013-05-16 06:56:00,
2013-05-16 03:01:00,50.0,49.2,29.69,SW,225,0.0,0.0,97,0.00,,---,0.00,VWS V14.00,2013-05-16 07:01:00,
2013-05-16 03:06:00,51.0,50.2,29.69,SW,225,0.0,0.0,97,0.00,,---,0.00,VWS V14.00,2013-05-16 07:06:00,
2013-05-16 03:11:00,52.0,51.2,29.69,SW,225,0.0,0.0,97,0.00,,---,0.00,VWS V14.00,2013-05-16 07:11:00,
2013-05-16 03:16:00,52.0,51.2,29.67,SW,225,0.0,0.0,97,0.00,,---,0.00,VWS V14.00,2013-05-16 07:16:00,
2013-05-16 03:21:00,52.0,51.2,29.67,SW,225,0.0,0.0,97,0.00,,---,0.00,VWS V14.00,2013-05-16 07:21:00,
2013-05-16 03:26:00,52.0,50.9,29.67,SW,225,0.0,0.0,96,0.00,,---,0.00,VWS V14.00,2013-05-16 07:26:00,
2013-05-16 03:31:00,53.0,51.6,29.67,SW,225,0.0,1.0,95,0.00,,---,0.00,VWS V14.00,2013-05-16 07:31:00,
2013-05-16 03:36:00,53.0,51.0,29.67,SW,225,0.0,0.0,93,0.00,,---,0.00,VWS V14.00,2013-05-16 07:36:00,
2013-05-16 03:41:00,54.0,51.4,29.67,SW,225,0.0,0.0,91,0.00,,---,0.00,VWS V14.00,2013-05-16 07:41:00,
2013-05-16 03:46:00,54.0,51.1,29.67,SW,225,0.0,0.0,90,0.00,,---,0.00,VWS V14.00,2013-05-16 07:46:00,
2013-05-16 03:51:00,54.0,50.8,29.67,SW,225,0.0,0.0,89,0.00,,---,0.00,VWS V14.00,2013-05-16 07:51:00,
2013-05-16 03:56:00,54.0,50.8,29.67,SW,225,0.0,0.0,89,0.00,,---,0.00,VWS V14.00,2013-05-16 07:56:00,
2013-05-16 04:01:00,54.0,50.5,29.67,SW,225,0.0,0.0,88,0.00,,---,0.00,VWS V14.00,2013-05-16 08:01:00,
2013-05-16 04:06:00,54.0,50.2,29.66,SW,225,0.0,0.0,87,0.00,,---,0.00,VWS V14.00,2013-05-16 08:06:00,
2013-05-16 04:11:00,54.0,49.9,29.66,SW,225,0.0,0.0,86,0.00,,---,0.00,VWS V14.00,2013-05-16 08:11:00,
2013-05-16 04:16:00,54.0,49.9,29.66,SW,225,0.0,0.0,86,0.00,,---,0.00,VWS V14.00,2013-05-16 08:16:00,
2013-05-16 04:21:00,54.0,49.9,29.66,SW,225,0.0,0.0,86,0.00,,---,0.00,VWS V14.00,2013-05-16 08:21:00,
2013-05-16 04:26:00,54.0,49.6,29.66,SW,225,0.0,0.0,85,0.00,,---,0.00,VWS V14.00,2013-05-16 08:26:00,
2013-05-16 04:31:00,54.0,49.3,29.66,SW,225,0.0,0.0,84,0.00,,---,0.00,VWS V14.00,2013-05-16 08:31:00,
2013-05-16 04:36:00,54.0,49.3,29.66,SW,225,0.0,0.0,84,0.00,,---,0.00,VWS V14.00,2013-05-16 08:36:00,
2013-05-16 04:41:00,54.0,49.3,29.66,SW,225,0.0,0.0,84,0.00,,---,0.00,VWS V14.00,2013-05-16 08:41:00,
2013-05-16 04:46:00,54.0,49.0,29.66,SW,225,0.0,0.0,83,0.00,,---,0.00,VWS V14.00,2013-05-16 08:46:00,
2013-05-16 04:51:00,54.0,48.6,29.66,SW,225,0.0,0.0,82,0.00,,---,0.00,VWS V14.00,2013-05-16 08:51:00,
2013-05-16 04:56:00,54.0,48.3,29.67,SW,225,0.0,0.0,81,0.00,,---,0.00,VWS V14.00,2013-05-16 08:56:00,
2013-05-16 05:01:00,54.0,48.0,29.67,SW,225,0.0,0.0,80,0.00,,---,0.00,VWS V14.00,2013-05-16 09:01:00,
2013-05-16 05:06:00,54.0,48.0,29.67,SW,225,0.0,0.0,80,0.00,,---,0.00,VWS V14.00,2013-05-16 09:06:00,
2013-05-16 05:11:00,53.0,46.3,29.67,SW,225,0.0,0.0,78,0.00,,---,0.00,VWS V14.00,2013-05-16 09:11:00,
2013-05-16 05:16:00,53.0,46.3,29.67,SW,225,0.0,0.0,78,0.00,,---,0.00,VWS V14.00,2013-05-16 09:16:00,
2013-05-16 05:21:00,53.0,46.0,29.67,SW,225,0.0,0.0,77,0.00,,---,0.00,VWS V14.00,2013-05-16 09:21:00,
2013-05-16 05:26:00,53.0,46.0,29.68,SW,225,0.0,0.0,77,0.00,,---,0.00,VWS V14.00,2013-05-16 09:26:00,
2013-05-16 05:31:00,53.0,45.7,29.68,SW,225,0.0,0.0,76,0.00,,---,0.00,VWS V14.00,2013-05-16 09:31:00,
2013-05-16 05:36:00,53.0,45.7,29.68,SW,225,0.0,0.0,76,0.00,,---,0.00,VWS V14.00,2013-05-16 09:36:00,
2013-05-16 05:41:00,53.0,46.0,29.68,SW,225,0.0,0.0,77,0.00,,---,0.00,VWS V14.00,2013-05-16 09:41:00,
2013-05-16 05:46:00,53.0,46.0,29.68,SW,225,0.0,0.0,77,0.00,,---,0.00,VWS V14.00,2013-05-16 09:46:00,
2013-05-16 05:51:00,53.0,45.7,29.68,SW,225,0.0,0.0,76,0.00,,---,0.00,VWS V14.00,2013-05-16 09:51:00,
2013-05-16 05:56:00,53.0,45.3,29.68,SW,225,0.0,0.0,75,0.00,,---,0.00,VWS V14.00,2013-05-16 09:56:00,
2013-05-16 06:01:00,53.0,45.0,29.68,SW,225,0.0,0.0,74,0.00,,---,0.00,VWS V14.00,2013-05-16 10:01:00,
2013-05-16 06:06:00,53.0,44.6,29.68,SW,225,0.0,0.0,73,0.00,,---,0.00,VWS V14.00,2013-05-16 10:06:00,
2013-05-16 06:11:00,53.0,44.6,29.68,SW,225,0.0,0.0,73,0.00,,---,0.00,VWS V14.00,2013-05-16 10:11:00,
2013-05-16 06:16:00,53.0,44.6,29.68,SW,225,0.0,0.0,73,0.00,,---,0.00,VWS V14.00,2013-05-16 10:16:00,
2013-05-16 06:21:00,53.0,44.2,29.68,SW,225,0.0,0.0,72,0.00,,---,0.00,VWS V14.00,2013-05-16 10:21:00,
2013-05-16 06:26:00,53.0,44.2,29.68,SW,225,0.0,0.0,72,0.00,,---,0.00,VWS V14.00,2013-05-16 10:26:00,
2013-05-16 06:31:00,53.0,44.2,29.68,SW,225,0.0,0.0,72,0.00,,---,0.00,VWS V14.00,2013-05-16 10:31:00,
2013-05-16 06:36:00,54.0,45.5,29.68,SW,225,0.0,0.0,73,0.00,,---,0.00,VWS V14.00,2013-05-16 10:36:00,
2013-05-16 06:41:00,54.0,45.5,29.68,SW,225,0.0,0.0,73,0.00,,---,0.00,VWS V14.00,2013-05-16 10:41:00,
2013-05-16 06:46:00,54.0,45.5,29.69,SW,225,0.0,0.0,73,0.00,,---,0.00,VWS V14.00,2013-05-16 10:46:00,
2013-05-16 06:51:00,54.0,45.5,29.69,SW,225,0.0,0.0,73,0.00,,---,0.00,VWS V14.00,2013-05-16 10:51:00,
2013-05-16 06:56:00,54.0,45.5,29.69,SW,225,0.0,0.0,73,0.00,,---,0.00,VWS V14.00,2013-05-16 10:56:00,
2013-05-16 07:01:00,54.0,45.2,29.69,SW,225,0.0,0.0,72,0.00,,---,0.00,VWS V14.00,2013-05-16 11:01:00,
2013-05-16 07:06:00,55.0,45.8,29.69,SW,225,0.0,0.0,71,0.00,,---,0.00,VWS V14.00,2013-05-16 11:06:00,
2013-05-16 07:11:00,55.0,45.4,29.69,SW,225,0.0,0.0,70,0.00,,---,0.00,VWS V14.00,2013-05-16 11:11:00,
2013-05-16 07:16:00,55.0,45.0,29.69,SW,225,0.0,0.0,69,0.00,,---,0.00,VWS V14.00,2013-05-16 11:16:00,
2013-05-16 07:21:00,56.0,45.6,29.69,SW,225,0.0,0.0,68,0.00,,---,0.00,VWS V14.00,2013-05-16 11:21:00,
2013-05-16 07:26:00,56.0,44.8,29.69,SW,225,0.0,0.0,66,0.00,,---,0.00,VWS V14.00,2013-05-16 11:26:00,
2013-05-16 07:31:00,57.0,46.2,29.69,SW,225,0.0,0.0,67,0.00,,---,0.00,VWS V14.00,2013-05-16 11:31:00,
2013-05-16 07:36:00,57.0,45.8,29.67,SW,225,0.0,0.0,66,0.00,,---,0.00,VWS V14.00,2013-05-16 11:36:00,
2013-05-16 07:41:00,58.0,45.5,29.67,SW,225,0.0,0.0,63,0.00,,---,0.00,VWS V14.00,2013-05-16 11:41:00,
2013-05-16 07:46:00,58.0,45.9,29.67,SW,225,0.0,0.0,64,0.00,,---,0.00,VWS V14.00,2013-05-16 11:46:00,
2013-05-16 07:51:00,59.0,46.8,29.67,SW,225,0.0,0.0,64,0.00,,---,0.00,VWS V14.00,2013-05-16 11:51:00,
2013-05-16 07:56:00,60.0,48.2,29.66,SW,225,0.0,0.0,65,0.00,,---,0.00,VWS V14.00,2013-05-16 11:56:00,
2013-05-16 08:01:00,61.0,48.8,29.66,South,180,0.0,0.0,64,0.00,,---,0.00,VWS V14.00,2013-05-16 12:01:00,
2013-05-16 08:06:00,62.0,47.5,29.66,SSW,202,0.0,0.0,59,0.00,,---,0.00,VWS V14.00,2013-05-16 12:06:00,
2013-05-16 08:11:00,62.0,46.6,29.66,SW,225,0.0,0.0,57,0.00,,---,0.00,VWS V14.00,2013-05-16 12:11:00,
2013-05-16 08:16:00,63.0,46.1,29.65,South,180,0.0,0.0,54,0.00,,---,0.00,VWS V14.00,2013-05-16 12:16:00,
2013-05-16 08:21:00,64.0,45.5,29.65,SSW,202,0.0,3.0,51,0.00,,---,0.00,VWS V14.00,2013-05-16 12:21:00,
2013-05-16 08:26:00,64.0,43.4,29.65,ESE,112,0.0,3.0,47,0.00,,---,0.00,VWS V14.00,2013-05-16 12:26:00,
2013-05-16 08:31:00,65.0,43.7,29.65,SW,225,0.0,0.0,46,0.00,,---,0.00,VWS V14.00,2013-05-16 12:31:00,
2013-05-16 08:36:00,65.0,42.6,29.65,SSW,202,0.0,0.0,44,0.00,,---,0.00,VWS V14.00,2013-05-16 12:36:00,
2013-05-16 08:41:00,65.0,43.2,29.65,SW,225,0.0,0.0,45,0.00,,---,0.00,VWS V14.00,2013-05-16 12:41:00,
2013-05-16 08:46:00,66.0,44.1,29.65,NNE,22,0.0,0.0,45,0.00,,---,0.00,VWS V14.00,2013-05-16 12:46:00,
2013-05-16 08:51:00,66.0,44.1,29.65,West,270,0.0,0.0,45,0.00,,---,0.00,VWS V14.00,2013-05-16 12:51:00,
2013-05-16 08:56:00,67.0,44.4,29.64,SSW,202,0.0,0.0,44,0.00,,---,0.00,VWS V14.00,2013-05-16 12:56:00,
2013-05-16 09:01:00,67.0,43.2,29.64,SSW,202,0.0,0.0,42,0.00,,---,0.00,VWS V14.00,2013-05-16 13:01:00,
2013-05-16 09:06:00,67.0,43.8,29.64,South,180,0.0,0.0,43,0.00,,---,0.00,VWS V14.00,2013-05-16 13:06:00,
2013-05-16 09:11:00,68.0,44.7,29.64,SSW,202,0.0,0.0,43,0.00,,---,0.00,VWS V14.00,2013-05-16 13:11:00,
2013-05-16 09:16:00,68.0,43.5,29.64,SW,225,0.0,0.0,41,0.00,,---,0.00,VWS V14.00,2013-05-16 13:16:00,
2013-05-16 09:21:00,69.0,43.7,29.64,South,180,0.0,0.0,40,0.00,,---,0.00,VWS V14.00,2013-05-16 13:21:00,
2013-05-16 09:26:00,70.0,43.2,29.63,South,180,0.0,0.0,38,0.00,,---,0.00,VWS V14.00,2013-05-16 13:26:00,
2013-05-16 09:31:00,71.0,44.8,29.63,South,180,0.0,0.0,39,0.00,,---,0.00,VWS V14.00,2013-05-16 13:31:00,
2013-05-16 09:36:00,72.0,45.0,29.61,South,180,0.0,0.0,38,0.00,,---,0.00,VWS V14.00,2013-05-16 13:36:00,
2013-05-16 09:41:00,72.0,42.9,29.61,SSW,202,0.0,0.0,35,0.00,,---,0.00,VWS V14.00,2013-05-16 13:41:00,
2013-05-16 09:46:00,73.0,43.0,29.59,East,90,0.0,0.0,34,0.00,,---,0.00,VWS V14.00,2013-05-16 13:46:00,
2013-05-16 09:51:00,73.0,43.0,29.59,SW,225,0.0,0.0,34,0.00,,---,0.00,VWS V14.00,2013-05-16 13:51:00,
2013-05-16 09:56:00,74.0,40.6,29.59,SW,225,0.0,0.0,30,0.00,,---,0.00,VWS V14.00,2013-05-16 13:56:00,
2013-05-16 10:01:00,74.0,42.3,29.59,SSW,202,0.0,0.0,32,0.00,,---,0.00,VWS V14.00,2013-05-16 14:01:00,
2013-05-16 10:06:00,74.0,40.6,29.59,SW,225,0.0,0.0,30,0.00,,---,0.00,VWS V14.00,2013-05-16 14:06:00,
2013-05-16 10:11:00,74.0,42.3,29.59,SSW,202,0.0,0.0,32,0.00,,---,0.00,VWS V14.00,2013-05-16 14:11:00,
2013-05-16 10:16:00,74.0,40.6,29.59,SW,225,0.0,0.0,30,0.00,,---,0.00,VWS V14.00,2013-05-16 14:16:00,
2013-05-16 10:21:00,74.0,39.8,29.59,SSW,202,0.0,0.0,29,0.00,,---,0.00,VWS V14.00,2013-05-16 14:21:00,
2013-05-16 10:26:00,74.0,40.6,29.59,SW,225,0.0,0.0,30,0.00,,---,0.00,VWS V14.00,2013-05-16 14:26:00,
2013-05-16 10:31:00,74.0,39.8,29.59,SW,225,0.0,0.0,29,0.00,,---,0.00,VWS V14.00,2013-05-16 14:31:00,
2013-05-16 10:36:00,75.0,38.8,29.59,SW,225,0.0,0.0,27,0.00,,---,0.00,VWS V14.00,2013-05-16 14:36:00,
2013-05-16 10:41:00,75.0,37.8,29.59,SW,225,0.0,0.0,26,0.00,,---,0.00,VWS V14.00,2013-05-16 14:41:00,
2013-05-16 10:46:00,74.0,37.9,29.59,WSW,247,0.0,0.0,27,0.00,,---,0.00,VWS V14.00,2013-05-16 14:46:00,
2013-05-16 10:51:00,73.0,38.9,29.59,SW,225,0.0,0.0,29,0.00,,---,0.00,VWS V14.00,2013-05-16 14:51:00,
2013-05-16 10:56:00,73.0,37.1,29.61,SW,225,0.0,0.0,27,0.00,,---,0.00,VWS V14.00,2013-05-16 14:56:00,
2013-05-16 11:01:00,73.0,38.0,29.61,SW,225,0.0,0.0,28,0.00,,---,0.00,VWS V14.00,2013-05-16 15:01:00,
2013-05-16 11:06:00,73.0,37.1,29.61,SW,225,0.0,0.0,27,0.00,,---,0.00,VWS V14.00,2013-05-16 15:06:00,
2013-05-16 11:11:00,72.0,35.3,29.61,SW,225,0.0,0.0,26,0.00,,---,0.00,VWS V14.00,2013-05-16 15:11:00,
2013-05-16 11:16:00,72.0,36.2,29.61,SW,225,0.0,0.0,27,0.00,,---,0.00,VWS V14.00,2013-05-16 15:16:00,
2013-05-16 11:21:00,72.0,38.0,29.61,SW,225,0.0,0.0,29,0.00,,---,0.00,VWS V14.00,2013-05-16 15:21:00,
2013-05-16 11:26:00,73.0,38.0,29.61,SW,225,0.0,0.0,28,0.00,,---,0.00,VWS V14.00,2013-05-16 15:26:00,
2013-05-16 11:31:00,74.0,39.8,29.61,SW,225,0.0,0.0,29,0.00,,---,0.00,VWS V14.00,2013-05-16 15:31:00,
2013-05-16 11:35:00,75.0,36.8,29.60,SW,225,0.0,0.0,25,0.00,,---,0.00,VWS V14.00,2013-05-16 15:35:00,
2013-05-16 11:40:00,76.0,36.6,29.60,South,180,0.0,0.0,24,0.00,,---,0.00,VWS V14.00,2013-05-16 15:40:00,
2013-05-16 11:45:00,76.0,35.6,29.59,SW,225,0.0,0.0,23,0.00,,---,0.00,VWS V14.00,2013-05-16 15:45:00,
2013-05-16 11:50:00,77.0,34.1,29.59,SW,225,0.0,0.0,21,0.00,,---,0.00,VWS V14.00,2013-05-16 15:50:00,
2013-05-16 11:55:00,77.0,34.1,29.58,SW,225,0.0,0.0,21,0.00,,---,0.00,VWS V14.00,2013-05-16 15:55:00,
2013-05-16 12:00:00,78.0,34.9,29.58,East,90,0.0,0.0,21,0.00,,---,0.00,VWS V14.00,2013-05-16 16:00:00,
2013-05-16 12:05:00,78.0,32.4,29.57,South,180,0.0,0.0,19,0.00,,---,0.00,VWS V14.00,2013-05-16 16:05:00,
2013-05-16 12:10:00,78.0,33.7,29.57,WSW,247,0.0,0.0,20,0.00,,---,0.00,VWS V14.00,2013-05-16 16:10:00,
2013-05-16 12:15:00,78.0,32.4,29.56,SW,225,0.0,0.0,19,0.00,,---,0.00,VWS V14.00,2013-05-16 16:15:00,
2013-05-16 12:20:00,79.0,33.3,29.56,WSW,247,0.0,0.0,19,0.00,,---,0.00,VWS V14.00,2013-05-16 16:20:00,
2013-05-16 12:25:00,80.0,35.4,29.55,South,180,0.0,0.0,20,0.00,,---,0.00,VWS V14.00,2013-05-16 16:25:00,
2013-05-16 12:30:00,79.0,31.9,29.55,SW,225,0.0,0.0,18,0.00,,---,0.00,VWS V14.00,2013-05-16 16:30:00,
2013-05-16 12:35:00,79.0,31.9,29.55,SW,225,0.0,0.0,18,0.00,,---,0.00,VWS V14.00,2013-05-16 16:35:00,
2013-05-16 12:40:00,78.0,31.1,29.55,West,270,0.0,0.0,18,0.00,,---,0.00,VWS V14.00,2013-05-16 16:40:00,
2013-05-16 12:45:00,78.0,31.1,29.55,SW,225,0.0,0.0,18,0.00,,---,0.00,VWS V14.00,2013-05-16 16:45:00,
2013-05-16 12:50:00,79.0,31.9,29.55,WSW,247,0.0,0.0,18,0.00,,---,0.00,VWS V14.00,2013-05-16 16:50:00,
2013-05-16 12:55:00,79.0,34.5,29.54,South,180,0.0,0.0,20,0.00,,---,0.00,VWS V14.00,2013-05-16 16:55:00,
2013-05-16 13:00:00,80.0,34.1,29.54,South,180,0.0,0.0,19,0.00,,---,0.00,VWS V14.00,2013-05-16 17:00:00,
2013-05-16 13:05:00,81.0,34.9,29.54,WSW,247,0.0,0.0,19,0.00,,---,0.00,VWS V14.00,2013-05-16 17:05:00,
2013-05-16 13:10:00,80.0,31.3,29.54,SW,225,0.0,0.0,17,0.00,,---,0.00,VWS V14.00,2013-05-16 17:10:00,
2013-05-16 13:15:00,80.0,32.7,29.53,West,270,0.0,0.0,18,0.00,,---,0.00,VWS V14.00,2013-05-16 17:15:00,
2013-05-16 13:20:00,79.0,31.9,29.53,SW,225,0.0,0.0,18,0.00,,---,0.00,VWS V14.00,2013-05-16 17:20:00,
2013-05-16 13:25:00,79.0,33.3,29.53,SW,225,0.0,0.0,19,0.00,,---,0.00,VWS V14.00,2013-05-16 17:25:00,
2013-05-16 13:30:00,79.0,34.5,29.53,SW,225,0.0,0.0,20,0.00,,---,0.00,VWS V14.00,2013-05-16 17:30:00,
2013-05-16 13:35:00,79.0,33.3,29.53,SSW,202,0.0,0.0,19,0.00,,---,0.00,VWS V14.00,2013-05-16 17:35:00,
2013-05-16 13:40:00,79.0,33.3,29.53,WSW,247,0.0,0.0,19,0.00,,---,0.00,VWS V14.00,2013-05-16 17:40:00,
2013-05-16 13:45:00,79.0,31.9,29.53,SW,225,0.0,0.0,18,0.00,,---,0.00,VWS V14.00,2013-05-16 17:45:00,
2013-05-16 13:50:00,79.0,33.3,29.53,WSW,247,0.0,0.0,19,0.00,,---,0.00,VWS V14.00,2013-05-16 17:50:00,
2013-05-16 13:55:00,79.0,34.5,29.53,SW,225,0.0,0.0,20,0.00,,---,0.00,VWS V14.00,2013-05-16 17:55:00,
2013-05-16 14:00:00,80.0,35.4,29.53,SW,225,0.0,0.0,20,0.00,,---,0.00,VWS V14.00,2013-05-16 18:00:00,
2013-05-16 14:05:00,80.0,34.1,29.53,West,270,0.0,0.0,19,0.00,,---,0.00,VWS V14.00,2013-05-16 18:05:00,
2013-05-16 14:10:00,80.0,34.1,29.53,WNW,292,0.0,0.0,19,0.00,,---,0.00,VWS V14.00,2013-05-16 18:10:00,
2013-05-16 14:15:00,80.0,32.7,29.52,NE,45,0.0,0.0,18,0.00,,---,0.00,VWS V14.00,2013-05-16 18:15:00,
2013-05-16 14:20:00,80.0,35.4,29.52,South,180,0.0,0.0,20,0.00,,---,0.00,VWS V14.00,2013-05-16 18:20:00,
2013-05-16 14:25:00,80.0,32.7,29.52,SW,225,0.0,0.0,18,0.00,,---,0.00,VWS V14.00,2013-05-16 18:25:00,
2013-05-16 14:30:00,81.0,33.5,29.52,NW,315,0.0,0.0,18,0.00,,---,0.00,VWS V14.00,2013-05-16 18:30:00,
2013-05-16 14:35:00,80.0,35.4,29.52,SW,225,0.0,0.0,20,0.00,,---,0.00,VWS V14.00,2013-05-16 18:35:00,
2013-05-16 14:40:00,80.0,35.4,29.52,ENE,67,0.0,0.0,20,0.00,,---,0.00,VWS V14.00,2013-05-16 18:40:00,
2013-05-16 14:45:00,81.0,36.2,29.51,WNW,292,0.0,0.0,20,0.00,,---,0.00,VWS V14.00,2013-05-16 18:45:00,
2013-05-16 14:50:00,81.0,33.5,29.51,South,180,0.0,0.0,18,0.00,,---,0.00,VWS V14.00,2013-05-16 18:50:00,
2013-05-16 14:55:00,80.0,32.7,29.52,SW,225,0.0,0.0,18,0.00,,---,0.00,VWS V14.00,2013-05-16 18:55:00,
2013-05-16 15:00:00,80.0,34.1,29.52,SW,225,0.0,0.0,19,0.00,,---,0.00,VWS V14.00,2013-05-16 19:00:00,
2013-05-16 15:05:00,80.0,35.4,29.51,ESE,112,0.0,0.0,20,0.00,,---,0.00,VWS V14.00,2013-05-16 19:05:00,
2013-05-16 15:10:00,81.0,33.5,29.51,SW,225,0.0,0.0,18,0.00,,---,0.00,VWS V14.00,2013-05-16 19:10:00,
2013-05-16 15:15:00,80.0,32.7,29.52,SW,225,0.0,0.0,18,0.00,,---,0.00,VWS V14.00,2013-05-16 19:15:00,
2013-05-16 15:20:00,80.0,32.7,29.52,SW,225,0.0,0.0,18,0.00,,---,0.00,VWS V14.00,2013-05-16 19:20:00,
2013-05-16 15:25:00,79.0,34.5,29.52,South,180,0.0,0.0,20,0.00,,---,0.00,VWS V14.00,2013-05-16 19:25:00,
2013-05-16 15:30:00,79.0,34.5,29.52,SW,225,0.0,0.0,20,0.00,,---,0.00,VWS V14.00,2013-05-16 19:30:00,
2013-05-16 15:35:00,79.0,34.5,29.53,WSW,247,0.0,0.0,20,0.00,,---,0.00,VWS V14.00,2013-05-16 19:35:00,
2013-05-16 15:40:00,79.0,35.8,29.53,SW,225,0.0,0.0,21,0.00,,---,0.00,VWS V14.00,2013-05-16 19:40:00,
2013-05-16 15:45:00,78.0,36.1,29.53,SW,225,0.0,0.0,22,0.00,,---,0.00,VWS V14.00,2013-05-16 19:45:00,
2013-05-16 15:50:00,79.0,34.5,29.53,SSE,157,0.0,0.0,20,0.00,,---,0.00,VWS V14.00,2013-05-16 19:50:00,
2013-05-16 15:55:00,79.0,33.3,29.54,SW,225,0.0,1.0,19,0.00,,---,0.00,VWS V14.00,2013-05-16 19:55:00,
2013-05-16 16:00:00,78.0,32.4,29.54,SW,225,0.0,0.0,19,0.00,,---,0.00,VWS V14.00,2013-05-16 20:00:00,
2013-05-16 16:05:00,78.0,33.7,29.54,NNE,22,0.0,0.0,20,0.00,,---,0.00,VWS V14.00,2013-05-16 20:05:00,
2013-05-16 16:10:00,78.0,33.7,29.54,SSW,202,0.0,0.0,20,0.00,,---,0.00,VWS V14.00,2013-05-16 20:10:00,
2013-05-16 16:15:00,78.0,34.9,29.53,SW,225,4.0,4.0,21,0.00,,---,0.00,VWS V14.00,2013-05-16 20:15:00,
2013-05-16 16:20:00,79.0,34.5,29.53,East,90,0.0,0.0,20,0.00,,---,0.00,VWS V14.00,2013-05-16 20:20:00,
2013-05-16 16:25:00,79.0,31.9,29.54,SW,225,11.0,11.0,18,0.00,,---,0.00,VWS V14.00,2013-05-16 20:25:00,
2013-05-16 16:30:00,78.0,32.4,29.54,SSW,202,0.0,0.0,19,0.00,,---,0.00,VWS V14.00,2013-05-16 20:30:00,
2013-05-16 16:35:00,78.0,33.7,29.54,SW,225,0.0,0.0,20,0.00,,---,0.00,VWS V14.00,2013-05-16 20:35:00,
2013-05-16 16:40:00,78.0,32.4,29.54,SW,225,0.0,0.0,19,0.00,,---,0.00,VWS V14.00,2013-05-16 20:40:00,
2013-05-16 16:45:00,77.0,32.9,29.54,SW,225,0.0,3.0,20,0.00,,---,0.00,VWS V14.00,2013-05-16 20:45:00,
2013-05-16 16:50:00,77.0,32.9,29.54,SSW,202,0.0,0.0,20,0.00,,---,0.00,VWS V14.00,2013-05-16 20:50:00,
2013-05-16 16:55:00,77.0,32.9,29.55,SW,225,0.0,0.0,20,0.00,,---,0.00,VWS V14.00,2013-05-16 20:55:00,
2013-05-16 17:00:00,77.0,35.3,29.55,WSW,247,0.0,0.0,22,0.00,,---,0.00,VWS V14.00,2013-05-16 21:00:00,
2013-05-16 17:05:00,77.0,34.1,29.55,SSE,157,0.0,0.0,21,0.00,,---,0.00,VWS V14.00,2013-05-16 21:05:00,
2013-05-16 17:10:00,77.0,32.9,29.55,SW,225,0.0,0.0,20,0.00,,---,0.00,VWS V14.00,2013-05-16 21:10:00,
2013-05-16 17:15:00,77.0,35.3,29.55,ESE,112,0.0,0.0,22,0.00,,---,0.00,VWS V14.00,2013-05-16 21:15:00,
2013-05-16 17:20:00,77.0,32.9,29.55,SSW,202,0.0,0.0,20,0.00,,---,0.00,VWS V14.00,2013-05-16 21:20:00,
2013-05-16 17:25:00,77.0,31.6,29.55,SW,225,3.0,5.0,19,0.00,,---,0.00,VWS V14.00,2013-05-16 21:25:00,
2013-05-16 17:30:00,77.0,31.6,29.55,SW,225,0.0,0.0,19,0.00,,---,0.00,VWS V14.00,2013-05-16 21:30:00,
2013-05-16 17:35:00,77.0,31.6,29.55,East,90,0.0,0.0,19,0.00,,---,0.00,VWS V14.00,2013-05-16 21:35:00,
2013-05-16 17:40:00,77.0,32.9,29.55,SW,225,0.0,0.0,20,0.00,,---,0.00,VWS V14.00,2013-05-16 21:40:00,
2013-05-16 17:45:00,77.0,30.3,29.55,South,180,0.0,0.0,18,0.00,,---,0.00,VWS V14.00,2013-05-16 21:45:00,
2013-05-16 17:50:00,77.0,31.6,29.55,SW,225,0.0,0.0,19,0.00,,---,0.00,VWS V14.00,2013-05-16 21:50:00,
2013-05-16 17:55:00,77.0,30.3,29.55,SSW,202,0.0,3.0,18,0.00,,---,0.00,VWS V14.00,2013-05-16 21:55:00,
2013-05-16 18:00:00,77.0,30.3,29.55,SW,225,0.0,2.0,18,0.00,,---,0.00,VWS V14.00,2013-05-16 22:00:00,
2013-05-16 18:05:00,77.0,31.6,29.55,SW,225,2.0,2.0,19,0.00,,---,0.00,VWS V14.00,2013-05-16 22:05:00,
2013-05-16 18:10:00,76.0,30.8,29.55,SW,225,0.0,0.0,19,0.00,,---,0.00,VWS V14.00,2013-05-16 22:10:00,
2013-05-16 18:15:00,76.0,32.1,29.55,WSW,247,0.0,0.0,20,0.00,,---,0.00,VWS V14.00,2013-05-16 22:15:00,
2013-05-16 18:20:00,76.0,32.1,29.55,NNE,22,0.0,0.0,20,0.00,,---,0.00,VWS V14.00,2013-05-16 22:20:00,
2013-05-16 18:25:00,76.0,32.1,29.57,SW,225,0.0,3.0,20,0.00,,---,0.00,VWS V14.00,2013-05-16 22:25:00,
2013-05-16 18:30:00,76.0,32.1,29.57,SW,225,0.0,0.0,20,0.00,,---,0.00,VWS V14.00,2013-05-16 22:30:00,
2013-05-16 18:35:00,76.0,32.1,29.57,SW,225,0.0,3.0,20,0.00,,---,0.00,VWS V14.00,2013-05-16 22:35:00,
2013-05-16 18:40:00,76.0,32.1,29.57,WNW,292,0.0,0.0,20,0.00,,---,0.00,VWS V14.00,2013-05-16 22:40:00,
2013-05-16 18:45:00,75.0,31.2,29.57,SSW,202,0.0,4.0,20,0.00,,---,0.00,VWS V14.00,2013-05-16 22:45:00,
2013-05-16 18:50:00,75.0,31.2,29.57,SSW,202,0.0,0.0,20,0.00,,---,0.00,VWS V14.00,2013-05-16 22:50:00,
2013-05-16 18:55:00,75.0,32.5,29.58,SSW,202,0.0,0.0,21,0.00,,---,0.00,VWS V14.00,2013-05-16 22:55:00,
2013-05-16 19:00:00,75.0,33.6,29.58,SW,225,0.0,0.0,22,0.00,,---,0.00,VWS V14.00,2013-05-16 23:00:00,
2013-05-16 19:05:00,74.0,32.8,29.59,WSW,247,0.0,0.0,22,0.00,,---,0.00,VWS V14.00,2013-05-16 23:05:00,
2013-05-16 19:10:00,74.0,30.4,29.59,SW,225,0.0,0.0,20,0.00,,---,0.00,VWS V14.00,2013-05-16 23:10:00,
2013-05-16 19:15:00,74.0,31.6,29.59,SW,225,0.0,3.0,21,0.00,,---,0.00,VWS V14.00,2013-05-16 23:15:00,
2013-05-16 19:20:00,74.0,30.4,29.59,SW,225,1.0,6.0,20,0.00,,---,0.00,VWS V14.00,2013-05-16 23:20:00,
2013-05-16 19:25:00,74.0,30.4,29.59,SW,225,0.0,4.0,20,0.00,,---,0.00,VWS V14.00,2013-05-16 23:25:00,
2013-05-16 19:30:00,74.0,31.6,29.59,South,180,0.0,0.0,21,0.00,,---,0.00,VWS V14.00,2013-05-16 23:30:00,
2013-05-16 19:35:00,73.0,30.8,29.61,WSW,247,0.0,0.0,21,0.00,,---,0.00,VWS V14.00,2013-05-16 23:35:00,
2013-05-16 19:40:00,73.0,30.8,29.61,SW,225,0.0,0.0,21,0.00,,---,0.00,VWS V14.00,2013-05-16 23:40:00,
2013-05-16 19:45:00,73.0,32.0,29.61,SW,225,0.0,0.0,22,0.00,,---,0.00,VWS V14.00,2013-05-16 23:45:00,
2013-05-16 19:50:00,73.0,32.0,29.61,SW,225,0.0,0.0,22,0.00,,---,0.00,VWS V14.00,2013-05-16 23:50:00,
2013-05-16 19:55:00,72.0,31.1,29.62,SW,225,0.0,0.0,22,0.00,,---,0.00,VWS V14.00,2013-05-16 23:55:00,
2013-05-16 20:00:00,72.0,32.2,29.62,SSW,202,0.0,0.0,23,0.00,,---,0.00,VWS V14.00,2013-05-17 00:00:00,
2013-05-16 20:05:00,72.0,32.2,29.62,SW,225,0.0,0.0,23,0.00,,---,0.00,VWS V14.00,2013-05-17 00:05:00,
2013-05-16 20:10:00,72.0,32.2,29.62,SW,225,0.0,5.0,23,0.00,,---,0.00,VWS V14.00,2013-05-17 00:10:00,
2013-05-16 20:15:00,72.0,33.3,29.63,SW,225,0.0,1.0,24,0.00,,---,0.00,VWS V14.00,2013-05-17 00:15:00,
2013-05-16 20:20:00,72.0,32.2,29.63,SW,225,0.0,0.0,23,0.00,,---,0.00,VWS V14.00,2013-05-17 00:20:00,
2013-05-16 20:25:00,71.0,32.4,29.64,SW,225,0.0,3.0,24,0.00,,---,0.00,VWS V14.00,2013-05-17 00:25:00,
2013-05-16 20:30:00,71.0,32.4,29.64,SW,225,0.0,0.0,24,0.00,,---,0.00,VWS V14.00,2013-05-17 00:30:00,
2013-05-16 20:35:00,71.0,32.4,29.65,SSW,202,0.0,0.0,24,0.00,,---,0.00,VWS V14.00,2013-05-17 00:35:00,
2013-05-16 20:39:00,71.0,31.4,29.65,SW,225,0.0,3.0,23,0.00,,---,0.00,VWS V14.00,2013-05-17 00:39:00,
2013-05-16 20:44:00,71.0,29.1,29.66,SW,225,0.0,4.0,21,0.00,,---,0.00,VWS V14.00,2013-05-17 00:44:00,
2013-05-16 20:49:00,71.0,28.0,29.66,SW,225,1.0,3.0,20,0.00,,---,0.00,VWS V14.00,2013-05-17 00:49:00,
2013-05-16 20:54:00,71.0,28.0,29.67,WSW,247,0.0,3.0,20,0.00,,---,0.00,VWS V14.00,2013-05-17 00:54:00,
2013-05-16 20:59:00,71.0,28.0,29.67,SW,225,0.0,0.0,20,0.00,,---,0.00,VWS V14.00,2013-05-17 00:59:00,
2013-05-16 21:04:00,71.0,28.0,29.67,SE,135,0.0,3.0,20,0.00,,---,0.00,VWS V14.00,2013-05-17 01:04:00,
2013-05-16 21:09:00,70.0,27.1,29.67,SW,225,3.0,4.0,20,0.00,,---,0.00,VWS V14.00,2013-05-17 01:09:00,
2013-05-16 21:14:00,70.0,28.3,29.68,SW,225,0.0,4.0,21,0.00,,---,0.00,VWS V14.00,2013-05-17 01:14:00,
2013-05-16 21:19:00,70.0,28.3,29.68,WSW,247,0.0,0.0,21,0.00,,---,0.00,VWS V14.00,2013-05-17 01:19:00,
2013-05-16 21:24:00,70.0,29.4,29.68,SW,225,0.0,0.0,22,0.00,,---,0.00,VWS V14.00,2013-05-17 01:24:00,
2013-05-16 21:29:00,69.0,28.6,29.68,SW,225,3.0,3.0,22,0.00,,---,0.00,VWS V14.00,2013-05-17 01:29:00,
2013-05-16 21:36:00,69.0,28.6,29.69,SW,225,0.0,0.0,22,0.00,,---,0.00,VWS V14.00,2013-05-17 01:36:00,
2013-05-16 21:41:00,69.0,29.7,29.69,SSW,202,0.0,0.0,23,0.00,,---,0.00,VWS V14.00,2013-05-17 01:41:00,
2013-05-16 21:46:00,68.0,29.9,29.69,SSW,202,0.0,0.0,24,0.00,,---,0.00,VWS V14.00,2013-05-17 01:46:00,
2013-05-16 21:51:00,68.0,28.9,29.69,SE,135,0.0,0.0,23,0.00,,---,0.00,VWS V14.00,2013-05-17 01:51:00,
2013-05-16 21:56:00,68.0,29.9,29.70,South,180,0.0,0.0,24,0.00,,---,0.00,VWS V14.00,2013-05-17 01:56:00,
2013-05-16 22:01:00,67.0,30.0,29.70,South,180,0.0,0.0,25,0.00,,---,0.00,VWS V14.00,2013-05-17 02:01:00,
2013-05-16 22:06:00,67.0,30.0,29.71,ESE,112,0.0,0.0,25,0.00,,---,0.00,VWS V14.00,2013-05-17 02:06:00,
2013-05-16 22:11:00,66.0,29.2,29.71,ESE,112,0.0,0.0,25,0.00,,---,0.00,VWS V14.00,2013-05-17 02:11:00,
2013-05-16 22:16:00,66.0,30.2,29.72,South,180,0.0,1.0,26,0.00,,---,0.00,VWS V14.00,2013-05-17 02:16:00,
2013-05-16 22:21:00,65.0,29.3,29.72,SE,135,0.0,0.0,26,0.00,,---,0.00,VWS V14.00,2013-05-17 02:21:00,
2013-05-16 22:26:00,65.0,29.3,29.73,South,180,0.0,0.0,26,0.00,,---,0.00,VWS V14.00,2013-05-17 02:26:00,
2013-05-16 22:31:00,65.0,30.2,29.73,South,180,0.0,0.0,27,0.00,,---,0.00,VWS V14.00,2013-05-17 02:31:00,
2013-05-16 22:36:00,65.0,30.2,29.73,South,180,0.0,0.0,27,0.00,,---,0.00,VWS V14.00,2013-05-17 02:36:00,
2013-05-16 22:41:00,65.0,30.2,29.73,South,180,0.0,0.0,27,0.00,,---,0.00,VWS V14.00,2013-05-17 02:41:00,
2013-05-16 22:46:00,64.0,29.4,29.74,South,180,0.0,0.0,27,0.00,,---,0.00,VWS V14.00,2013-05-17 02:46:00,
2013-05-16 22:51:00,64.0,29.4,29.74,South,180,0.0,0.0,27,0.00,,---,0.00,VWS V14.00,2013-05-17 02:51:00,
2013-05-16 22:56:00,64.0,30.3,29.75,South,180,0.0,0.0,28,0.00,,---,0.00,VWS V14.00,2013-05-17 02:56:00,
2013-05-16 23:01:00,64.0,30.3,29.75,South,180,0.0,0.0,28,0.00,,---,0.00,VWS V14.00,2013-05-17 03:01:00,
2013-05-16 23:06:00,64.0,31.1,29.75,South,180,0.0,0.0,29,0.00,,---,0.00,VWS V14.00,2013-05-17 03:06:00,
2013-05-16 23:11:00,64.0,31.1,29.75,South,180,0.0,0.0,29,0.00,,---,0.00,VWS V14.00,2013-05-17 03:11:00,
2013-05-16 23:16:00,64.0,32.0,29.76,NE,45,0.0,0.0,30,0.00,,---,0.00,VWS V14.00,2013-05-17 03:16:00,
2013-05-16 23:21:00,63.0,31.1,29.76,NE,45,0.0,0.0,30,0.00,,---,0.00,VWS V14.00,2013-05-17 03:21:00,
2013-05-16 23:26:00,63.0,33.5,29.78,NE,45,0.0,0.0,33,0.00,,---,0.00,VWS V14.00,2013-05-17 03:26:00,
2013-05-16 23:31:00,62.0,36.1,29.78,ENE,67,0.0,0.0,38,0.00,,---,0.00,VWS V14.00,2013-05-17 03:31:00,
2013-05-16 23:36:00,62.0,37.4,29.78,SE,135,0.0,0.0,40,0.00,,---,0.00,VWS V14.00,2013-05-17 03:36:00,
2013-05-16 23:41:00,62.0,38.0,29.78,East,90,0.0,0.0,41,0.00,,---,0.00,VWS V14.00,2013-05-17 03:41:00,
2013-05-16 23:46:00,61.0,38.4,29.79,SE,135,0.0,0.0,43,0.00,,---,0.00,VWS V14.00,2013-05-17 03:46:00,
2013-05-16 23:51:00,61.0,39.0,29.79,SE,135,0.0,0.0,44,0.00,,---,0.00,VWS V14.00,2013-05-17 03:51:00,
2013-05-16 23:56:00,60.0,38.0,29.80,SE,135,0.0,0.0,44,0.00,,---,0.00,VWS V14.00,2013-05-17 03:56:00,